Location: Unspecified
(0.0000°N, 0.0000°E)
Time: 20:19:30
(UTC+00:00)

STARLINK-1033 - Pass Details

Date: 19 January 2020
Orbit: 548 x 551 km, 53.0° (Epoch: 29 September)

Event Time Altitude Azimuth Distance (km) Brightness Sun altitude
Exits shadow 04:12:55 24° 175° (S) 1,153 5.5 -27.4°
Maximum altitude 04:14:47 37° 124° (SE) 850 5.0 -26.9°
Drops below altitude 10° 04:18:36 10° 56° (NE) 1,808 6.6 -26.1°
Enters shadow 05:35:53 -30° 222° (SW) 7,394 9.2 -8.1°
